This is the latest recevied weather packets stored in our database for station/object K7CTM. If no packets are shown the sender has not sent any weather packets the latest 10 day(s).
| Time | Temp. | Humidity | Pressure | Rain* | Wind** | Luminosity | Snow |
|---|---|---|---|---|---|---|---|
| 1777745704 | 20° C | 25% | 1027.4 hPa | 0 mm | - | 595 W/m² | - |
| 1777745402 | 20° C | 25% | 1027.7 hPa | 0 mm | - | 735 W/m² | - |
| 1777745099 | 19.44° C | 29% | 1027.7 hPa | 0 mm | - | 720 W/m² | - |
| 1777744796 | 20.56° C | 26% | 1027.7 hPa | 0 mm | - | 770 W/m² | - |
| 1777744495 | 20° C | 28% | 1027.9 hPa | 0 mm | - | 740 W/m² | - |
| 1777744192 | 20° C | 25% | 1027.9 hPa | 0 mm | - | 551 W/m² | - |
| 1777743889 | 20.56° C | 26% | 1027.8 hPa | 0 mm | - | 753 W/m² | - |
| 1777743586 | 20° C | 27% | 1027.9 hPa | 0 mm | - | 689 W/m² | - |
| 1777743283 | 20° C | 27% | 1028 hPa | 0 mm | - | 744 W/m² | - |
| 1777742981 | 18.89° C | 28% | 1028.1 hPa | 0 mm | - | 753 W/m² | - |
| 1777742678 | 18.89° C | 29% | 1028.2 hPa | 0 mm | - | 706 W/m² | - |
| 1777742374 | 18.33° C | 31% | 1027.9 hPa | 0 mm | - | 595 W/m² | - |
| 1777742070 | 18.89° C | 30% | 1028.2 hPa | 0 mm | - | 618 W/m² | - |
| 1777741768 | 19.44° C | 31% | 1028.2 hPa | 0 mm | - | 688 W/m² | - |
| 1777741464 | 18.89° C | 32% | 1028.3 hPa | 0 mm | - | 618 W/m² | - |
| 1777741160 | 17.78° C | 31% | 1028.3 hPa | 0 mm | - | 688 W/m² | - |
| 1777740858 | 17.22° C | 31% | 1028.5 hPa | 0 mm | - | 554 W/m² | - |
| 1777740554 | 16.67° C | 33% | 1028.3 hPa | 0 mm | - | 605 W/m² | - |
| 1777740251 | 16.11° C | 32% | 1028.6 hPa | 0 mm | - | 625 W/m² | - |
| 1777739947 | 15.56° C | 35% | 1028.5 hPa | 0 mm | - | 497 W/m² | - |
| 1777739643 | 15.56° C | 37% | 1028.3 hPa | 0 mm | - | 564 W/m² | - |
| 1777739341 | 15° C | 35% | 1028.6 hPa | 0 mm | - | 547 W/m² | - |
| 1777739038 | 14.44° C | 36% | 1028.7 hPa | 0 mm | - | 514 W/m² | - |
| 1777738735 | 14.44° C | 35% | 1028.6 hPa | 0 mm | - | 537 W/m² | - |
| 1777738431 | 14.44° C | 34% | 1028.6 hPa | 0 mm | - | 567 W/m² | - |
* Rain latest hour (hover to see other rain measurements)
** Current wind speed in m/s (hover to see current wind gust speed)